Overview Statistics Trail Chart Weather Telemetry Raw packets
 

This is the latest recevied weather packets stored in our database for station/object KE8WMS. If no packets are shown the sender has not sent any weather packets the latest 10 day(s).

<< 73 74 75 76 77 78 79 >>
Time Temp. Humidity Pressure Rain* Wind** Luminosity Snow
1777319588 22.78° C 39% 1012.2 hPa 0 mm - 326 W/m² -
1777319284 22.78° C 42% 1012.4 hPa 0 mm - 357 W/m² -
1777318981 22.78° C 43% 1012.5 hPa 0 mm - 395 W/m² -
1777318678 22.78° C 40% 1012.5 hPa 0 mm - 422 W/m² -
1777318374 22.78° C 38% 1012.6 hPa 0 mm - 423 W/m² -
1777318071 22.78° C 40% 1012.9 hPa 0 mm - 461 W/m² -
1777317768 22.22° C 41% 1013.2 hPa 0 mm - 457 W/m² -
1777317465 22.22° C 38% 1012.9 hPa 0 mm - 455 W/m² -
1777317162 22.22° C 39% 1013.2 hPa 0 mm - 399 W/m² -
1777316857 22.22° C 39% 1013.4 hPa 0 mm - 447 W/m² -
1777316555 22.78° C 40% 1013.1 hPa 0 mm - 437 W/m² -
1777316251 22.78° C 42% 1013.2 hPa 0 mm - 525 W/m² -
1777315949 22.78° C 43% 1013.4 hPa 0 mm - 550 W/m² -
1777315647 22.78° C 42% 1013.8 hPa 0 mm - 596 W/m² -
1777315345 22.78° C 42% 1013.8 hPa 0 mm - 657 W/m² -
1777315043 22.78° C 40% 1013.9 hPa 0 mm - 603 W/m² -
1777314743 23.33° C 40% 1014.2 hPa 0 mm - 709 W/m² -
1777314440 22.78° C 41% 1014.3 hPa 0 mm - 709 W/m² -
1777314136 22.22° C 41% 1014.4 hPa 0 mm - 717 W/m² -
1777313835 22.78° C 43% 1014.5 hPa 0 mm - 748 W/m² -
1777313531 22.22° C 42% 1014.7 hPa 0 mm - 746 W/m² -
1777313229 22.22° C 45% 1014.6 hPa 0 mm - 686 W/m² -
1777312925 22.78° C 40% 1014.7 hPa 0 mm - 717 W/m² -
1777312621 21.67° C 43% 1015 hPa 0 mm - 688 W/m² -
1777312319 22.22° C 39% 1015.2 hPa 0 mm - 677 W/m² -

* Rain latest hour (hover to see other rain measurements)
** Current wind speed in m/s (hover to see current wind gust speed)